Location: Binningen
(47.7924°N, 8.7261°E)
Time: 20:50:15
(UTC+00:00)

Milstar 3 - Pass Details

Date: 17 May 2021
Orbit: 1089 x 5155 km, 28.3° (Epoch: 08 May)

Event Time Altitude Azimuth Distance (km) Brightness Sun altitude
Rises 21:11:02 0° 256° (WSW) 7,324 7.3 -16.6°
Reaches altitude 10° 21:17:41 10° 246° (WSW) 5,552 6.5 -17.2°
Maximum altitude 21:28:29 26° 198° (SSW) 3,173 4.8 -18.1°
Enters shadow 21:31:31 22° 173° (S) 3,047 4.5 -18.3°
